Temp
11 11 11 11 11 11 11 11 11 10 10 10 10 10 9 9 9 9 9 9 8 8 8 8 8 7 7 7 7 6 6 6 5 5 5 4 4 3 3 3 3 3 2 2 2 2 1 1 1 1 0 0 -0 -0 -0 -0 -0 -1 -1 -1 -1 -1 -1 -2 -2 -2 -2 -2 -2
11 11 11 11 11 11 11 10 10 10 10 10 10 9 9 9 9 9 9 8 8 8 8 7 7 7 7 7 6 6 6 5 5 4 4 4 3 3 3 3 3 2 2 2 2 2 1 1 1 0 0 -0 -0 -0 -0 -1 -1 -1 -1 -1 -1 -1 -2 -2 -2 -2 -2 -2 -2
11 11 11 11 11 11 10 10 10 10 10 10 9 9 9 9 9 8 8 8 8 7 7 7 7 7 7 6 6 6 5 5 4 4 4 3 3 3 3 3 2 2 2 2 2 1 1 1 0 0 -0 -0 -0 -0 -0 -1 -1 -1 -1 -1 -1 -2 -2 -2 -2 -2 -2 -2 -2
11 11 11 11 11 11 10 10 10 10 10 10 9 9 9 9 8 8 8 8 8 7 7 7 7 7 6 6 6 5 4 4 4 4 3 3 3 3 3 2 2 2 2 1 1 1 1 0 0 -0 -0 -0 -0 -0 -1 -1 -1 -1 -1 -1 -2 -2 -2 -2 -2 -2 -2 -2 -2
11 11 11 11 11 11 10 10 10 10 10 10 9 9 9 9 9 8 8 8 7 7 7 7 7 6 6 6 5 4 4 4 3 3 3 3 3 2 2 2 2 2 1 1 1 1 0 0 -0 -0 -0 -0 -0 -1 -1 -1 -1 -1 -1 -2 -2 -2 -2 -2 -2 -2 -2 -2 -2
12 11 11 11 11 10 10 10 10 10 10 9 9 9 9 9 8 8 8 7 7 7 7 7 6 6 6 5 4 4 4 4 3 3 3 3 2 2 2 2 2 1 1 1 1 0 0 0 -0 -0 -0 -0 -1 -1 -1 -1 -1 -1 -2 -2 -2 -2 -2 -2 -2 -2 -2 -2 -3
12 11 11 11 11 10 10 10 10 10 9 9 9 9 9 9 8 8 8 7 7 7 7 6 6 6 5 4 4 4 4 3 3 3 3 2 2 2 2 2 2 1 1 1 0 0 0 -0 -0 -0 -1 -1 -1 -1 -1 -1 -1 -1 -2 -2 -2 -2 -2 -2 -2 -2 -2 -3 -3
12 11 11 11 11 11 10 10 10 9 9 9 9 9 8 8 8 7 7 7 7 7 6 6 6 5 5 4 4 4 4 3 3 3 2 2 2 2 2 2 1 1 1 1 0 0 -0 -0 -0 -0 -1 -1 -1 -1 -1 -1 -1 -2 -2 -2 -2 -2 -2 -2 -2 -2 -3 -3 -3
11 11 11 11 10 10 10 10 9 9 9 9 9 8 8 8 7 7 7 7 7 6 6 6 5 5 4 4 4 4 3 3 3 2 2 2 2 2 2 1 1 1 1 0 0 0 -0 -0 -0 -1 -1 -1 -1 -1 -1 -1 -2 -2 -2 -2 -2 -2 -2 -2 -3 -3 -3 -3 -3
11 11 11 10 10 10 9 9 9 9 9 8 8 8 7 7 7 7 7 7 6 6 6 5 5 5 4 4 4 3 3 3 3 2 2 2 2 2 2 1 1 1 1 0 0 0 -0 -0 -0 -1 -1 -1 -1 -1 -1 -2 -2 -2 -2 -2 -2 -2 -3 -3 -3 -3 -3 -3 -3
11 11 10 10 10 9 9 9 9 8 8 8 8 7 7 7 7 7 7 6 6 6 6 5 5 4 4 4 4 3 3 3 3 2 2 2 2 2 1 1 1 1 0 0 0 -0 -0 -0 -1 -1 -1 -1 -1 -1 -1 -2 -2 -2 -2 -2 -2 -3 -3 -3 -3 -3 -3 -3 -4
11 10 10 10 9 9 9 9 8 8 8 8 7 7 7 7 7 7 6 6 6 6 5 5 4 4 4 4 3 3 3 3 2 2 2 2 2 1 1 1 1 1 0 0 -0 -0 -0 -0 -1 -1 -1 -1 -1 -1 -2 -2 -2 -2 -2 -2 -3 -3 -3 -3 -3 -4 -4 -4 -4
10 10 10 9 9 9 9 9 8 8 8 8 7 7 7 7 7 7 6 6 6 5 5 4 4 4 4 4 3 3 3 3 2 2 2 2 1 1 1 1 1 0 0 0 -0 -0 -0 -1 -1 -1 -1 -1 -1 -2 -2 -2 -2 -2 -2 -3 -3 -3 -3 -3 -4 -4 -4 -4 -4
10 10 10 9 9 9 9 9 8 8 8 8 8 7 7 7 7 6 6 6 5 5 5 4 4 4 4 3 3 3 3 2 2 2 2 1 1 1 1 1 0 0 0 -0 -0 -0 -1 -1 -1 -1 -1 -1 -1 -2 -2 -2 -2 -2 -2 -2 -3 -3 -3 -4 -4 -4 -4 -4 -4
10 10 9 9 9 9 9 9 8 8 8 8 8 7 7 7 7 6 6 6 5 5 4 4 4 4 3 3 3 3 2 2 2 2 1 1 1 1 1 0 0 0 -0 -0 -0 -0 -1 -1 -1 -1 -1 -1 -1 -2 -2 -2 -2 -2 -2 -2 -3 -3 -3 -4 -4 -4 -4 -4 -4
10 10 9 9 9 9 9 8 8 8 8 8 7 7 7 7 6 6 6 5 5 5 4 4 4 4 3 3 3 2 2 2 2 1 1 1 1 1 0 0 0 0 -0 -0 -0 -1 -1 -1 -1 -1 -1 -1 -2 -2 -2 -2 -2 -2 -2 -3 -3 -3 -4 -4 -4 -4 -4 -4 -4
10 10 9 9 9 9 8 8 8 8 8 7 7 7 7 6 6 6 6 5 5 5 4 4 4 3 3 3 3 2 2 2 1 1 1 1 1 1 0 0 0 0 -0 -0 -0 -1 -1 -1 -1 -1 -1 -1 -2 -2 -2 -2 -2 -2 -3 -3 -3 -4 -4 -4 -4 -4 -4 -5 -5
10 9 9 9 9 9 8 8 8 7 7 7 7 6 6 6 6 6 5 5 5 4 4 4 3 3 3 3 2 2 2 2 1 1 1 1 1 0 0 0 0 -0 -0 -0 -0 -1 -1 -1 -1 -1 -1 -1 -2 -2 -2 -2 -2 -3 -3 -3 -3 -4 -4 -4 -4 -4 -5 -5 -5
10 9 9 9 9 9 9 8 8 7 7 7 6 6 6 6 6 5 5 5 4 4 4 3 3 3 3 2 2 2 2 1 1 1 1 1 0 0 0 0 0 -0 -0 -0 -0 -1 -1 -1 -1 -1 -1 -2 -2 -2 -2 -2 -3 -3 -3 -3 -4 -4 -4 -4 -4 -5 -5 -5 -5
10 9 9 9 9 9 9 9 8 7 7 7 6 6 6 6 5 5 5 4 4 4 3 3 3 3 2 2 2 2 1 1 1 1 1 0 0 0 0 0 -0 -0 -0 -0 -1 -1 -1 -1 -1 -1 -2 -2 -2 -2 -2 -3 -3 -3 -3 -3 -4 -4 -4 -4 -5 -5 -5 -5 -5
9 9 9 9 9 9 9 9 8 8 7 7 6 6 6 5 5 5 4 4 4 3 3 3 3 2 2 2 2 1 1 1 1 1 0 0 0 0 0 0 -0 -0 -0 -0 -1 -1 -1 -1 -1 -2 -2 -2 -2 -2 -3 -3 -3 -3 -3 -4 -4 -4 -4 -4 -5 -5 -5 -5 -5
9 9 9 9 9 9 9 8 8 7 7 6 6 6 5 5 5 4 4 4 3 3 3 2 2 2 2 2 1 1 1 1 1 0 0 0 0 0 0 -0 -0 -0 -0 -1 -1 -1 -1 -1 -2 -2 -2 -2 -2 -3 -3 -3 -3 -3 -4 -4 -4 -4 -4 -5 -5 -5 -5 -5 -5
9 9 8 8 8 8 8 8 8 7 7 6 5 5 5 5 4 4 3 3 3 3 2 2 2 2 2 1 1 1 1 1 0 0 0 0 0 0 -0 -0 -0 -0 -1 -1 -1 -1 -1 -2 -2 -2 -2 -3 -3 -3 -3 -3 -3 -4 -4 -4 -4 -4 -5 -5 -5 -5 -5 -5 -6
8 8 8 8 7 7 7 7 7 7 6 5 5 5 5 4 4 3 3 3 3 3 2 2 2 2 2 1 1 1 1 1 0 0 0 0 0 -0 -0 -0 -0 -1 -1 -1 -1 -1 -1 -2 -2 -2 -3 -3 -3 -3 -3 -3 -4 -4 -4 -4 -4 -5 -5 -5 -5 -5 -5 -5 -6
8 8 8 7 7 7 7 7 6 6 5 5 5 4 4 4 3 3 3 3 3 2 2 2 2 2 1 1 1 1 1 1 0 0 0 0 -0 -0 -0 -0 -0 -1 -1 -1 -1 -1 -2 -2 -2 -3 -3 -3 -3 -3 -3 -3 -4 -4 -4 -4 -5 -5 -5 -5 -5 -5 -5 -6 -6
8 8 7 7 7 7 7 6 6 6 5 5 4 4 4 4 3 3 3 3 2 2 2 1 1 1 1 1 1 1 1 0 0 0 -0 -0 -0 -0 -0 -0 -1 -1 -1 -1 -1 -2 -2 -2 -2 -3 -3 -3 -3 -3 -3 -4 -4 -4 -4 -5 -5 -5 -5 -5 -5 -6 -6 -6 -6
8 7 7 7 7 7 6 6 6 5 5 4 4 4 4 3 3 3 3 3 2 2 1 1 1 1 1 1 1 1 0 0 0 -0 -0 -0 -0 -0 -0 -0 -1 -1 -1 -1 -1 -2 -2 -2 -3 -3 -3 -3 -3 -3 -3 -4 -4 -4 -5 -5 -5 -5 -5 -5 -5 -6 -6 -6 -6
8 7 7 7 6 6 6 6 5 5 5 4 4 4 3 3 3 3 3 2 2 1 1 1 1 1 1 1 1 1 0 0 0 -0 -0 -0 -0 -0 -0 -0 -1 -1 -1 -1 -2 -2 -2 -3 -3 -3 -3 -3 -3 -3 -4 -4 -4 -5 -5 -5 -5 -5 -5 -5 -6 -6 -6 -6 -6
7 7 7 6 6 6 6 5 5 5 5 4 4 4 3 3 3 3 3 2 2 1 1 1 1 1 1 1 1 0 0 0 0 -0 -0 -0 -0 -0 -0 -0 -1 -1 -1 -2 -2 -2 -3 -3 -3 -3 -3 -3 -3 -4 -4 -4 -4 -5 -5 -5 -5 -5 -5 -6 -6 -6 -6 -6 -6
7 7 6 6 6 6 5 5 5 5 4 4 4 3 3 3 3 3 2 2 1 1 1 1 1 1 1 1 1 0 0 0 0 0 0 0 -0 -0 -0 -1 -1 -1 -2 -2 -2 -3 -3 -3 -3 -3 -3 -3 -4 -4 -4 -4 -5 -5 -5 -5 -5 -5 -5 -6 -6 -6 -6 -6 -6
7 6 6 6 6 5 5 5 5 4 4 4 3 3 3 3 3 2 2 1 1 1 1 1 1 1 1 1 1 0 0 0 0 0 0 0 -0 -0 -0 -1 -1 -2 -2 -2 -3 -3 -3 -3 -3 -3 -3 -4 -4 -4 -4 -5 -5 -5 -5 -5 -5 -5 -5 -6 -6 -6 -6 -6 -6
6 6 6 6 5 5 5 4 4 4 4 3 3 3 3 3 3 2 2 1 1 1 1 1 1 1 1 1 0 0 0 0 0 0 0 0 -0 -0 -1 -1 -1 -2 -2 -3 -3 -3 -3 -3 -3 -3 -4 -4 -4 -4 -4 -5 -5 -5 -5 -5 -5 -5 -5 -6 -6 -6 -6 -6 -6
6 6 6 5 5 5 4 4 4 4 3 3 3 3 3 3 2 2 1 1 1 1 1 1 1 1 1 0 0 0 0 0 0 0 0 -0 -0 -1 -1 -1 -2 -2 -3 -3 -3 -3 -3 -3 -3 -4 -4 -4 -4 -4 -5 -5 -5 -5 -5 -5 -5 -5 -5 -6 -6 -6 -6 -6 -6
6 6 5 5 5 4 4 4 4 3 3 3 3 3 3 2 2 2 1 1 1 1 1 1 1 1 1 0 0 0 0 0 0 0 0 -0 -1 -1 -1 -2 -2 -2 -3 -3 -3 -3 -3 -3 -4 -4 -4 -4 -4 -4 -5 -5 -5 -5 -5 -5 -5 -5 -5 -6 -6 -6 -6 -6 -6
6 5 5 5 4 4 4 4 4 4 3 3 3 3 3 2 2 1 1 1 1 1 1 1 1 1 0 0 0 0 0 0 0 0 -0 -0 -1 -1 -2 -2 -2 -3 -3 -3 -3 -3 -3 -4 -4 -4 -4 -4 -4 -4 -5 -5 -5 -5 -5 -5 -5 -5 -5 -6 -6 -6 -6 -6 -6
5 5 5 4 4 4 4 4 4 4 3 3 3 3 2 2 2 1 1 1 1 1 1 1 1 1 0 0 0 0 0 0 0 -0 -0 -1 -1 -1 -2 -2 -2 -3 -3 -3 -3 -3 -4 -4 -4 -4 -4 -4 -4 -4 -4 -5 -5 -5 -5 -5 -5 -5 -5 -6 -6 -6 -6 -6 -6
5 5 4 4 4 4 4 4 4 3 3 3 3 2 2 2 1 1 1 1 1 1 1 1 1 0 0 0 0 0 0 0 -0 -0 -1 -1 -1 -2 -2 -2 -3 -3 -3 -3 -3 -4 -4 -4 -4 -4 -4 -4 -4 -4 -4 -5 -5 -5 -5 -5 -5 -5 -5 -6 -6 -6 -6 -6 -6
4 4 4 4 4 4 4 4 3 3 3 3 2 2 2 1 1 1 1 1 1 1 1 1 0 0 0 0 0 0 0 0 -0 -0 -1 -1 -1 -2 -2 -3 -3 -3 -3 -3 -4 -4 -4 -4 -4 -4 -4 -4 -4 -4 -4 -4 -5 -5 -5 -5 -5 -5 -5 -6 -6 -6 -6 -6 -6
4 4 4 4 4 4 4 3 3 3 3 2 2 2 1 1 1 1 1 1 1 1 1 0 0 0 0 0 0 0 0 -0 -0 -1 -1 -1 -2 -2 -2 -3 -3 -3 -3 -3 -4 -4 -4 -4 -4 -4 -4 -4 -4 -4 -4 -4 -4 -5 -5 -5 -5 -5 -5 -6 -6 -6 -6 -6 -6
4 4 4 4 4 4 3 3 3 3 2 2 2 1 1 1 1 1 1 1 1 1 0 0 0 0 0 0 0 0 -0 -0 -0 -1 -1 -2 -2 -2 -3 -3 -3 -3 -3 -4 -4 -4 -4 -4 -4 -4 -4 -4 -4 -4 -4 -4 -4 -4 -5 -5 -5 -5 -5 -5 -6 -6 -6 -6 -6
4 4 4 4 4 3 3 3 3 2 2 2 1 1 1 1 1 1 1 1 1 0 0 0 0 0 0 0 0 0 -0 -0 -1 -1 -1 -2 -2 -3 -3 -3 -3 -3 -4 -4 -4 -4 -4 -4 -4 -4 -4 -4 -4 -4 -4 -4 -4 -4 -5 -5 -5 -5 -5 -5 -6 -6 -6 -6 -6
Height
1544 1544 1545 1545 1546 1546 1547 1547 1548 1548 1549 1549 1550 1550 1550 1551 1551 1551 1552 1552 1552 1552 1552 1552 1552 1552 1552 1553 1553 1553 1553 1553 1552 1552 1552 1551 1551 1551 1551 1550 1550 1550 1549 1549 1549 1548 1548 1548 1547 1547 1547 1546 1545 1545 1544 1544 1543 1543 1543 1542 1542 1542 1541 1541 1540 1539 1539 1538 1538
1543 1543 1544 1544 1545 1545 1546 1547 1547 1548 1548 1549 1549 1550 1550 1550 1551 1551 1551 1551 1551 1552 1552 1552 1552 1552 1553 1553 1553 1553 1552 1552 1552 1552 1551 1551 1551 1551 1550 1550 1549 1549 1549 1548 1548 1548 1547 1547 1547 1547 1546 1545 1545 1544 1543 1543 1543 1542 1542 1542 1541 1541 1540 1540 1539 1538 1538 1537 1537
1542 1542 1542 1543 1544 1544 1545 1546 1547 1547 1547 1548 1548 1549 1549 1549 1550 1550 1550 1550 1551 1551 1551 1552 1552 1552 1552 1552 1552 1552 1552 1552 1552 1551 1551 1551 1551 1550 1550 1549 1549 1549 1548 1548 1547 1547 1547 1547 1546 1546 1545 1545 1544 1544 1543 1542 1542 1542 1541 1541 1540 1540 1539 1539 1538 1537 1537 1537 1536
1541 1541 1542 1542 1542 1543 1544 1545 1545 1546 1546 1547 1547 1547 1548 1548 1548 1549 1549 1549 1550 1550 1551 1551 1552 1552 1552 1552 1552 1552 1551 1551 1551 1551 1551 1551 1550 1550 1549 1549 1549 1548 1548 1547 1547 1547 1546 1546 1545 1545 1545 1544 1543 1543 1542 1542 1541 1541 1540 1540 1539 1539 1538 1537 1537 1537 1536 1535 1535
1539 1540 1540 1541 1542 1542 1543 1544 1544 1545 1545 1546 1546 1546 1547 1547 1547 1548 1548 1548 1549 1550 1550 1551 1551 1551 1551 1551 1551 1551 1551 1551 1550 1550 1550 1550 1550 1549 1549 1548 1548 1547 1547 1547 1546 1546 1545 1545 1545 1544 1544 1543 1542 1542 1541 1541 1540 1540 1539 1539 1538 1538 1537 1537 1536 1535 1535 1534 1533
1538 1538 1539 1540 1541 1541 1542 1542 1543 1543 1544 1544 1545 1545 1545 1546 1546 1547 1547 1548 1548 1549 1549 1550 1550 1550 1550 1550 1550 1550 1550 1550 1550 1549 1549 1549 1548 1548 1548 1547 1547 1547 1546 1546 1545 1545 1544 1544 1543 1543 1542 1542 1542 1541 1540 1540 1539 1539 1538 1538 1537 1537 1536 1535 1535 1534 1534 1533 1532
1536 1537 1538 1538 1539 1540 1540 1541 1542 1542 1542 1543 1543 1544 1544 1545 1545 1546 1547 1547 1547 1548 1548 1548 1548 1548 1548 1549 1549 1549 1549 1548 1548 1548 1548 1547 1547 1547 1547 1547 1546 1546 1545 1545 1544 1544 1543 1543 1542 1542 1542 1541 1540 1540 1539 1539 1538 1538 1537 1537 1536 1536 1535 1534 1534 1533 1532 1532 1531
1535 1536 1536 1537 1538 1538 1539 1540 1541 1541 1542 1542 1543 1543 1544 1544 1545 1545 1546 1546 1547 1547 1547 1547 1547 1547 1547 1547 1547 1547 1547 1547 1547 1547 1547 1546 1546 1546 1546 1546 1545 1545 1544 1544 1543 1543 1542 1542 1542 1541 1541 1540 1540 1539 1539 1538 1538 1537 1537 1536 1535 1534 1534 1533 1532 1532 1531 1531 1530
1533 1534 1535 1536 1537 1537 1538 1539 1540 1541 1541 1542 1543 1543 1544 1544 1545 1545 1546 1546 1546 1546 1546 1546 1546 1546 1546 1546 1546 1546 1546 1546 1546 1546 1546 1546 1545 1545 1545 1545 1544 1544 1543 1543 1542 1542 1542 1541 1541 1540 1540 1539 1539 1538 1538 1537 1537 1536 1536 1535 1534 1533 1532 1532 1531 1531 1530 1529 1528
1532 1533 1534 1535 1536 1537 1538 1539 1540 1541 1542 1542 1543 1543 1544 1544 1545 1545 1545 1545 1545 1545 1545 1545 1545 1545 1545 1545 1545 1545 1545 1545 1545 1545 1545 1545 1545 1544 1544 1544 1543 1543 1542 1542 1541 1541 1541 1540 1540 1539 1539 1538 1538 1537 1537 1537 1536 1535 1534 1533 1533 1532 1531 1531 1530 1530 1529 1528 1527
1532 1533 1534 1535 1536 1537 1537 1538 1539 1540 1541 1542 1542 1543 1544 1545 1545 1545 1545 1545 1545 1544 1544 1544 1544 1544 1544 1544 1544 1545 1544 1544 1544 1544 1544 1544 1544 1543 1543 1543 1542 1542 1542 1541 1540 1540 1540 1539 1539 1538 1538 1537 1537 1537 1536 1535 1535 1534 1533 1532 1532 1531 1530 1529 1529 1528 1527 1527 1526
1532 1533 1534 1535 1535 1536 1537 1537 1538 1539 1540 1541 1542 1543 1543 1544 1544 1544 1544 1544 1544 1544 1543 1543 1543 1543 1543 1544 1544 1544 1543 1543 1543 1543 1543 1543 1543 1542 1542 1542 1542 1541 1541 1540 1540 1539 1538 1538 1538 1537 1537 1537 1536 1536 1535 1534 1533 1533 1532 1532 1531 1530 1529 1528 1528 1527 1526 1526 1525
1532 1532 1533 1534 1535 1535 1536 1536 1537 1538 1539 1540 1541 1542 1542 1543 1543 1543 1543 1543 1543 1543 1543 1543 1543 1543 1543 1543 1543 1543 1542 1542 1542 1542 1542 1542 1542 1542 1542 1541 1541 1540 1540 1539 1539 1538 1537 1537 1537 1536 1536 1535 1535 1534 1534 1533 1532 1532 1531 1530 1530 1529 1528 1527 1527 1526 1525 1525 1524
1531 1532 1532 1533 1533 1534 1535 1535 1536 1536 1537 1538 1539 1539 1540 1541 1541 1542 1542 1542 1543 1543 1542 1542 1542 1542 1542 1542 1542 1542 1542 1542 1541 1541 1541 1541 1541 1541 1541 1540 1540 1540 1539 1538 1538 1537 1537 1536 1536 1535 1535 1534 1534 1533 1532 1532 1531 1531 1530 1529 1528 1527 1527 1526 1526 1525 1524 1524 1522
1529 1530 1531 1532 1532 1533 1534 1534 1535 1535 1536 1536 1537 1538 1538 1539 1539 1540 1540 1541 1541 1542 1542 1542 1542 1542 1542 1542 1541 1541 1541 1541 1540 1540 1540 1540 1540 1539 1539 1539 1539 1538 1538 1537 1537 1536 1536 1535 1535 1534 1534 1533 1533 1532 1532 1531 1530 1529 1529 1528 1527 1527 1526 1525 1525 1524 1523 1522 1521
1528 1529 1530 1531 1532 1533 1534 1534 1535 1535 1535 1536 1536 1537 1537 1537 1537 1538 1539 1539 1540 1540 1540 1541 1541 1541 1541 1541 1540 1540 1540 1539 1539 1539 1539 1538 1538 1538 1538 1538 1538 1537 1537 1537 1536 1535 1535 1534 1534 1533 1533 1532 1532 1531 1530 1530 1529 1528 1528 1527 1526 1525 1525 1524 1523 1523 1522 1521 1520
1526 1527 1528 1529 1531 1532 1534 1535 1535 1536 1536 1536 1536 1536 1536 1536 1537 1537 1537 1538 1538 1539 1539 1539 1539 1539 1539 1539 1539 1539 1538 1538 1538 1538 1537 1537 1537 1537 1537 1537 1537 1536 1536 1535 1535 1534 1533 1533 1532 1532 1532 1531 1530 1530 1529 1528 1528 1527 1527 1526 1525 1524 1523 1523 1522 1521 1520 1519 1518
1524 1525 1527 1528 1530 1532 1533 1535 1536 1537 1537 1536 1536 1536 1536 1536 1536 1536 1537 1537 1537 1537 1537 1538 1538 1538 1538 1538 1538 1537 1537 1537 1537 1537 1536 1536 1536 1535 1535 1535 1535 1535 1534 1534 1533 1533 1532 1532 1531 1531 1530 1530 1529 1529 1528 1527 1527 1526 1525 1524 1523 1523 1522 1521 1520 1519 1518 1517 1516
1523 1524 1525 1527 1528 1530 1531 1533 1535 1536 1536 1536 1536 1536 1536 1536 1536 1536 1536 1536 1536 1536 1537 1537 1537 1537 1537 1537 1537 1536 1536 1536 1536 1535 1535 1535 1534 1534 1534 1534 1533 1533 1533 1532 1532 1531 1531 1530 1530 1530 1529 1529 1528 1527 1527 1526 1526 1525 1524 1523 1522 1521 1521 1520 1519 1518 1517 1516 1515
1521 1522 1523 1525 1526 1527 1528 1530 1531 1532 1533 1534 1535 1535 1535 1535 1535 1535 1535 1535 1536 1536 1536 1536 1536 1536 1536 1536 1535 1535 1535 1534 1534 1534 1534 1534 1533 1533 1533 1532 1532 1532 1532 1531 1531 1530 1530 1529 1529 1528 1528 1527 1527 1526 1525 1525 1524 1523 1522 1522 1521 1520 1519 1518 1517 1516 1516 1514 1513
1520 1521 1522 1523 1524 1524 1525 1526 1528 1529 1531 1532 1533 1534 1534 1534 1534 1534 1534 1534 1534 1535 1535 1536 1536 1536 1535 1535 1534 1534 1534 1533 1533 1533 1533 1532 1532 1532 1532 1531 1531 1530 1530 1530 1529 1529 1528 1528 1527 1527 1527 1526 1525 1525 1524 1523 1522 1522 1521 1520 1519 1518 1517 1517 1516 1515 1514 1513 1512
1519 1520 1521 1522 1522 1522 1523 1524 1525 1527 1529 1530 1532 1532 1533 1532 1532 1532 1533 1533 1533 1534 1534 1535 1535 1535 1534 1534 1533 1533 1532 1532 1532 1532 1531 1531 1531 1530 1530 1530 1529 1529 1528 1528 1528 1527 1527 1527 1526 1526 1525 1524 1524 1523 1523 1522 1521 1520 1519 1518 1518 1517 1516 1515 1515 1514 1513 1512 1511
1519 1520 1521 1521 1522 1522 1522 1523 1524 1526 1527 1529 1530 1531 1531 1531 1531 1531 1532 1532 1532 1532 1533 1533 1534 1534 1533 1533 1532 1532 1531 1531 1531 1530 1530 1530 1529 1529 1528 1528 1528 1527 1527 1527 1526 1526 1525 1525 1524 1524 1523 1523 1522 1522 1521 1521 1520 1519 1518 1517 1516 1516 1515 1514 1513 1512 1511 1510 1509
1519 1519 1520 1521 1521 1522 1522 1523 1524 1524 1526 1527 1528 1529 1530 1530 1530 1530 1531 1531 1531 1531 1531 1532 1532 1532 1532 1532 1531 1531 1530 1529 1529 1529 1528 1528 1528 1527 1527 1527 1526 1526 1525 1525 1525 1524 1524 1523 1523 1522 1522 1522 1521 1521 1520 1519 1518 1517 1517 1516 1515 1514 1514 1513 1512 1511 1510 1509 1508
1517 1518 1519 1520 1520 1521 1522 1522 1523 1524 1524 1525 1527 1527 1528 1528 1529 1529 1529 1530 1530 1530 1530 1530 1530 1530 1530 1530 1530 1529 1528 1528 1527 1527 1527 1527 1526 1526 1526 1525 1525 1524 1524 1523 1523 1523 1522 1522 1522 1521 1521 1520 1519 1519 1518 1517 1517 1516 1516 1515 1514 1513 1512 1512 1511 1510 1509 1508 1507
1516 1517 1517 1518 1519 1520 1521 1522 1522 1522 1523 1524 1525 1526 1526 1527 1527 1528 1528 1528 1528 1529 1529 1529 1529 1529 1529 1528 1528 1527 1527 1527 1526 1526 1525 1525 1524 1524 1524 1524 1523 1523 1522 1522 1522 1521 1521 1521 1520 1520 1519 1518 1518 1517 1517 1516 1516 1515 1514 1513 1513 1512 1511 1510 1509 1508 1507 1507 1506
1515 1516 1516 1517 1518 1519 1519 1520 1521 1521 1522 1522 1523 1524 1525 1526 1526 1527 1527 1527 1527 1527 1527 1528 1527 1527 1527 1527 1527 1526 1526 1525 1525 1524 1524 1523 1523 1522 1522 1522 1522 1521 1521 1521 1520 1520 1520 1519 1519 1518 1518 1517 1517 1516 1516 1515 1514 1513 1513 1512 1512 1511 1510 1509 1508 1507 1506 1505 1504
1514 1515 1515 1516 1517 1517 1518 1519 1519 1520 1520 1521 1522 1523 1523 1524 1525 1526 1526 1526 1526 1526 1526 1527 1527 1526 1526 1526 1525 1525 1524 1524 1523 1522 1522 1522 1521 1521 1521 1521 1520 1520 1519 1519 1519 1518 1518 1518 1517 1517 1516 1516 1515 1515 1514 1513 1513 1512 1512 1511 1510 1510 1509 1508 1507 1506 1505 1504 1503
1513 1513 1514 1515 1516 1516 1517 1518 1518 1518 1519 1520 1521 1522 1522 1523 1524 1524 1525 1525 1525 1525 1525 1525 1525 1525 1525 1524 1524 1523 1523 1522 1522 1521 1521 1520 1520 1520 1519 1519 1519 1518 1518 1518 1517 1517 1517 1517 1516 1516 1515 1515 1514 1513 1513 1512 1512 1511 1510 1510 1509 1508 1507 1507 1506 1505 1504 1503 1502
1512 1512 1513 1514 1515 1515 1516 1517 1517 1517 1518 1519 1520 1521 1522 1522 1523 1523 1523 1523 1523 1523 1524 1524 1524 1523 1523 1523 1522 1522 1521 1521 1520 1519 1519 1518 1518 1518 1518 1517 1517 1517 1517 1516 1516 1516 1515 1515 1515 1514 1514 1513 1513 1512 1512 1511 1510 1510 1509 1508 1508 1507 1506 1506 1505 1504 1503 1502 1502
1511 1512 1512 1513 1514 1514 1515 1516 1516 1517 1517 1518 1519 1520 1521 1522 1522 1522 1522 1522 1522 1522 1522 1522 1522 1522 1522 1521 1521 1520 1520 1519 1518 1518 1517 1517 1517 1516 1516 1516 1516 1515 1515 1515 1515 1514 1514 1514 1513 1513 1512 1512 1511 1511 1510 1510 1509 1508 1508 1507 1507 1506 1505 1504 1504 1503 1502 1501 1501
1510 1511 1511 1512 1513 1514 1514 1515 1515 1516 1517 1517 1518 1519 1520 1521 1521 1521 1521 1520 1521 1521 1521 1521 1521 1520 1520 1519 1519 1519 1518 1517 1517 1516 1516 1516 1515 1515 1514 1514 1514 1514 1514 1513 1513 1513 1513 1512 1512 1512 1511 1511 1510 1509 1509 1508 1508 1507 1507 1506 1505 1505 1504 1503 1502 1502 1501 1500 1499
1509 1510 1511 1511 1512 1513 1513 1514 1515 1515 1516 1517 1518 1519 1519 1519 1519 1519 1519 1519 1519 1519 1519 1519 1519 1518 1518 1518 1517 1517 1517 1516 1515 1515 1514 1514 1514 1513 1513 1513 1512 1512 1512 1512 1512 1512 1511 1511 1511 1510 1510 1509 1509 1508 1507 1507 1507 1506 1506 1505 1504 1504 1503 1502 1502 1501 1500 1499 1498
1508 1509 1510 1511 1511 1512 1513 1513 1514 1515 1516 1517 1517 1518 1518 1518 1518 1517 1517 1517 1518 1518 1518 1517 1517 1517 1517 1516 1516 1515 1515 1514 1514 1513 1513 1512 1512 1512 1512 1511 1511 1511 1511 1511 1511 1510 1510 1510 1509 1509 1508 1508 1507 1507 1506 1506 1505 1505 1504 1504 1503 1502 1502 1501 1501 1500 1499 1498 1497
1507 1508 1509 1510 1511 1512 1512 1513 1514 1515 1515 1516 1517 1517 1517 1517 1516 1516 1516 1516 1517 1517 1516 1516 1516 1515 1515 1514 1514 1514 1513 1512 1512 1512 1512 1511 1511 1510 1510 1510 1510 1510 1510 1509 1509 1509 1508 1508 1508 1507 1507 1506 1506 1505 1505 1504 1504 1503 1503 1502 1502 1501 1501 1500 1499 1499 1498 1497 1496
1507 1508 1509 1510 1511 1511 1512 1513 1513 1514 1515 1515 1516 1516 1515 1515 1514 1514 1515 1515 1515 1515 1515 1514 1514 1513 1513 1513 1512 1512 1512 1511 1511 1510 1510 1509 1509 1509 1508 1508 1508 1508 1508 1508 1508 1507 1507 1507 1506 1506 1505 1505 1504 1504 1504 1503 1503 1502 1502 1501 1501 1500 1499 1499 1498 1497 1497 1496 1495
1507 1508 1509 1510 1510 1511 1512 1512 1513 1514 1514 1514 1514 1514 1513 1513 1513 1513 1514 1514 1514 1513 1513 1512 1512 1512 1512 1511 1511 1510 1510 1510 1509 1508 1508 1508 1507 1507 1507 1507 1507 1507 1507 1506 1506 1506 1506 1505 1505 1504 1504 1503 1503 1503 1502 1502 1502 1501 1500 1500 1499 1499 1498 1498 1497 1496 1496 1495 1494
1507 1508 1509 1509 1510 1511 1511 1512 1512 1513 1513 1513 1513 1512 1512 1512 1512 1512 1512 1512 1512 1512 1511 1511 1511 1510 1510 1510 1509 1509 1508 1508 1507 1507 1507 1506 1506 1506 1506 1505 1505 1505 1505 1505 1505 1504 1504 1504 1503 1503 1502 1502 1502 1501 1501 1500 1500 1500 1499 1498 1498 1497 1497 1497 1496 1495 1494 1493 1493
1507 1508 1509 1509 1510 1510 1511 1511 1512 1512 1512 1512 1511 1511 1511 1511 1511 1511 1511 1511 1511 1510 1510 1509 1509 1509 1508 1508 1508 1507 1507 1506 1506 1505 1505 1505 1504 1504 1504 1504 1504 1503 1503 1503 1503 1503 1502 1502 1502 1502 1501 1501 1500 1500 1499 1499 1498 1498 1498 1497 1497 1496 1496 1495 1494 1494 1493 1492 1492
1507 1507 1508 1509 1509 1510 1510 1510 1511 1510 1510 1510 1510 1510 1510 1510 1510 1510 1510 1509 1509 1509 1508 1508 1507 1507 1507 1507 1506 1506 1505 1505 1504 1504 1503 1503 1503 1503 1502 1502 1502 1502 1502 1502 1501 1501 1501 1501 1501 1500 1500 1499 1499 1498 1498 1497 1497 1497 1496 1496 1495 1495 1494 1494 1493 1492 1492 1491 1490
1507 1507 1508 1508 1509 1509 1509 1509 1509 1509 1509 1509 1509 1509 1509 1509 1509 1509 1508 1508 1507 1507 1507 1506 1506 1506 1505 1505 1505 1504 1504 1503 1503 1502 1502 1502 1502 1501 1501 1501 1501 1501 1500 1500 1500 1500 1499 1499 1499 1498 1498 1497 1497 1497 1497 1496 1496 1495 1495 1494 1494 1493 1493 1492 1492 1491 1491 1490 1489
Wind_Speed
17 16 16 16 16 16 17 16 16 15 15 15 15 16 16 15 15 15 15 15 16 16 15 15 14 14 14 15 16 16 16 16 16 16 16 15 15 15 15 16 16 15 15 15 15 15 15 16 16 17 17 18 18 18 18 17 16 16 15 15 15 15 16 16 17 17 18 18 18
18 18 17 17 18 18 17 16 16 16 16 16 16 16 16 16 15 16 16 16 16 16 15 15 14 14 14 15 15 14 14 14 14 14 14 14 14 14 15 15 15 15 15 15 15 15 16 16 16 17 17 18 18 18 17 17 16 16 15 15 15 16 16 16 17 17 18 18 19
19 19 19 19 19 18 18 17 17 17 17 17 17 17 17 16 16 17 17 17 16 15 15 14 14 14 15 14 13 12 12 12 12 13 13 13 14 14 15 15 15 15 15 15 16 16 16 16 17 17 17 17 18 17 17 17 16 16 16 16 16 16 16 16 17 18 19 19 20
19 19 20 19 19 19 19 18 18 18 18 18 18 18 18 18 18 18 17 17 16 15 14 14 14 14 14 12 11 10 10 10 11 12 13 13 14 15 15 15 15 15 15 16 16 16 17 17 17 18 18 18 18 18 18 17 17 16 16 16 16 16 17 17 18 19 20 20 21
20 20 20 20 20 20 19 19 19 19 20 20 20 19 19 19 19 19 18 17 15 14 13 13 14 13 12 10 9 8 8 9 10 12 13 14 14 15 16 16 15 15 16 16 16 17 17 18 18 18 19 19 19 19 18 18 17 17 17 17 17 17 18 19 19 20 20 21 22
20 21 21 21 20 20 20 20 20 20 20 21 21 21 21 20 20 19 18 16 14 13 13 13 12 11 9 8 7 7 8 9 11 12 13 14 15 16 16 16 15 15 16 16 17 17 18 18 19 19 20 20 20 19 19 18 18 17 17 17 18 19 20 20 21 21 21 21 22
21 21 21 21 21 21 21 21 21 21 21 21 21 21 21 20 19 18 16 14 13 13 12 12 10 9 7 7 7 7 8 10 12 13 14 15 15 16 16 15 15 15 16 16 17 18 18 19 19 19 20 20 20 19 19 18 18 18 18 18 19 20 21 21 22 21 21 21 21
22 22 22 22 22 21 21 21 21 21 21 21 21 21 20 19 18 16 15 14 13 12 11 10 8 7 7 6 7 8 9 11 13 14 14 15 15 15 15 15 15 15 16 17 17 18 18 19 19 20 20 20 19 19 18 18 18 18 19 19 21 21 22 22 22 22 21 21 21
22 22 22 22 21 21 21 20 21 21 21 21 20 20 19 17 16 15 14 13 12 11 10 8 7 7 7 7 7 8 10 12 13 14 14 15 15 15 15 15 15 16 16 17 17 18 19 19 19 20 19 19 19 18 18 18 19 19 20 20 22 23 23 22 22 21 21 20 21
23 22 22 21 21 20 20 20 20 20 20 20 19 18 17 16 15 14 13 13 11 10 9 8 7 7 7 7 7 9 11 13 14 14 14 14 15 15 15 15 15 16 16 17 18 18 19 19 19 19 19 19 19 18 18 19 19 20 21 22 23 23 23 22 21 21 21 21 21
22 21 21 20 20 20 20 20 20 20 19 19 18 17 16 15 14 13 13 12 11 9 8 8 7 7 7 7 8 11 13 14 14 14 14 14 14 15 15 15 16 16 17 17 18 18 19 19 19 19 19 19 19 19 19 19 20 21 22 23 23 23 22 22 22 22 21 21 22
21 20 20 20 20 20 21 21 21 20 20 19 18 17 15 14 13 13 12 11 10 9 8 8 7 7 7 8 10 12 14 14 14 14 14 14 15 15 15 16 16 16 17 17 18 18 19 19 19 19 19 19 19 19 19 20 21 22 22 22 22 22 22 22 23 23 22 22 22
21 20 20 20 21 21 21 21 21 21 20 20 18 17 16 15 14 13 12 10 9 9 9 9 8 8 8 9 11 13 14 14 14 14 14 14 15 15 15 16 16 16 16 17 17 18 18 19 19 19 19 19 19 19 20 21 22 22 23 23 23 23 23 23 24 23 22 22 23
22 21 21 21 22 22 22 22 22 22 21 20 19 18 17 16 15 14 12 10 9 9 10 10 10 10 10 11 12 14 14 14 14 14 14 14 15 15 15 16 16 16 16 17 17 18 18 19 19 19 19 19 20 20 21 22 23 24 24 25 26 26 25 24 23 22 22 22 23
23 23 23 23 23 22 22 22 22 22 22 20 19 18 16 15 14 13 11 10 10 10 11 11 11 11 11 12 13 14 14 14 14 14 14 14 15 15 15 15 16 16 16 16 17 18 18 18 19 19 19 20 20 21 22 23 24 25 26 27 27 27 25 23 21 21 21 22 23
24 24 24 23 23 22 22 22 22 22 21 19 18 17 16 14 13 12 11 10 10 11 11 12 12 12 12 12 13 14 14 14 14 14 14 14 15 15 15 15 16 16 16 17 17 18 18 19 19 20 20 20 21 22 23 24 25 26 27 28 27 25 22 20 20 20 21 22 23
26 25 25 24 23 22 21 21 21 20 19 18 17 16 15 13 12 11 10 10 10 11 12 13 13 13 12 13 13 14 14 14 14 14 15 15 15 15 16 16 16 16 17 17 17 18 19 19 20 20 20 21 22 23 23 24 25 26 27 27 25 22 19 19 19 20 21 22 23
27 26 25 24 22 21 20 20 19 19 17 16 15 14 13 12 11 11 10 10 11 12 13 14 14 13 12 13 13 14 14 14 15 15 15 15 15 16 16 16 17 17 17 17 18 18 19 20 20 20 20 21 22 22 23 24 24 26 26 25 22 19 18 19 20 21 22 23 24
28 27 26 24 22 21 20 19 19 18 17 15 14 13 12 11 11 11 10 10 11 12 13 14 14 13 12 12 13 14 15 15 15 15 16 16 16 17 17 17 18 18 18 18 19 19 19 20 20 20 20 20 21 22 22 23 24 25 25 23 20 19 19 20 21 22 22 23 23
29 28 26 24 22 21 20 20 20 19 17 16 14 13 12 12 12 12 11 10 11 12 13 14 13 13 12 13 14 15 15 15 15 16 16 16 17 17 18 19 19 19 19 19 19 19 19 19 18 18 19 20 21 21 22 23 24 24 22 20 19 19 21 21 22 22 22 22 22
29 28 26 25 23 23 22 21 20 19 17 15 14 14 14 14 13 12 11 11 11 13 14 14 13 13 13 14 15 15 15 16 16 16 17 17 18 19 19 20 20 20 20 20 19 18 18 17 17 18 19 19 20 21 22 23 23 22 20 19 19 20 21 21 21 21 21 21 20
29 27 25 25 24 23 22 21 19 16 14 14 14 15 15 14 13 11 11 11 12 13 14 14 14 13 14 15 15 16 16 16 17 17 18 19 19 20 21 21 21 21 21 20 19 18 17 16 17 17 18 19 20 20 21 22 21 20 19 19 20 20 21 20 20 20 20 19 19
27 26 25 24 23 21 20 19 16 14 13 14 15 15 15 13 13 12 12 12 12 14 14 14 14 14 15 16 16 17 17 17 18 18 19 20 20 21 22 22 22 21 20 19 18 17 16 16 17 17 17 18 19 20 20 20 19 18 18 19 19 19 19 19 19 19 19 19 18
26 25 24 23 21 20 19 17 15 13 13 14 15 15 14 14 13 13 12 12 13 14 15 15 15 15 16 17 17 18 18 18 19 19 20 20 21 22 22 22 21 20 20 18 17 16 16 16 17 17 17 18 18 19 19 19 18 18 19 19 18 18 18 18 19 19 19 19 18
26 25 24 23 21 20 19 17 15 14 14 14 15 15 15 14 13 13 13 13 14 15 15 15 16 17 17 18 19 19 19 19 19 20 20 21 22 22 22 22 21 20 19 18 17 16 16 16 16 16 17 17 18 18 18 18 18 18 18 18 17 17 18 19 19 19 19 19 19
27 26 24 23 22 21 19 17 15 14 14 15 16 16 15 14 14 13 13 14 15 16 16 16 17 18 18 19 20 20 20 20 20 20 21 22 22 22 21 21 20 20 19 18 17 16 15 15 16 16 16 17 17 17 17 17 18 18 17 16 16 16 18 19 19 19 19 19 19
27 26 24 23 22 20 18 16 15 15 15 16 16 16 15 14 14 14 14 16 16 16 16 17 18 19 19 20 21 20 20 20 21 21 21 21 21 21 21 20 20 19 18 17 16 15 15 15 15 16 16 16 16 16 17 18 18 17 15 14 15 16 18 19 20 20 20 19 19
27 25 24 23 21 20 18 16 16 16 16 16 16 16 15 15 14 15 16 17 17 17 17 18 19 20 20 21 21 21 21 21 21 21 21 21 20 20 20 20 19 19 17 16 15 14 14 14 14 15 15 15 16 16 17 17 16 15 14 14 15 17 18 19 20 20 20 20 19
26 25 24 23 21 19 18 17 17 17 16 16 16 15 15 15 15 16 17 18 18 17 18 18 19 20 21 21 21 21 21 21 20 20 20 20 20 20 20 19 19 17 16 14 13 13 13 13 14 14 14 15 16 17 17 16 15 14 13 14 15 17 18 19 20 20 20 20 20
26 25 24 22 20 19 18 17 17 17 16 16 15 15 15 15 16 17 18 19 18 18 18 19 20 21 21 21 21 21 20 20 20 19 19 19 20 20 19 19 17 16 14 13 12 12 12 13 13 14 15 16 16 16 16 15 14 13 13 14 16 17 18 19 20 20 21 21 20
26 25 23 22 20 19 18 18 17 16 16 16 16 16 16 16 17 18 19 19 18 18 19 20 21 21 21 21 21 20 20 19 19 19 19 19 20 20 19 18 16 14 13 12 11 12 12 13 14 15 16 16 17 16 15 14 13 13 13 15 16 17 18 19 20 20 21 21 21
26 24 23 21 20 19 18 18 17 16 16 16 16 16 15 16 18 19 19 18 18 18 19 20 21 21 21 21 20 20 19 19 18 19 19 19 20 19 18 17 15 13 12 11 11 12 12 13 14 15 16 17 16 15 14 13 12 13 14 15 16 18 18 19 19 20 21 21 22
25 24 22 21 19 19 18 17 17 16 16 16 15 15 16 17 19 19 18 17 18 19 20 21 21 21 21 20 19 19 18 18 18 19 19 19 19 18 17 16 14 12 12 11 11 12 13 14 15 16 16 16 15 14 13 12 12 13 14 15 17 18 18 19 19 20 21 21 22
25 23 21 20 19 18 18 17 16 16 16 15 15 15 17 19 20 19 17 17 18 19 20 21 21 21 20 19 18 18 18 18 19 19 19 19 18 17 16 14 13 12 12 12 12 12 13 14 15 16 16 15 14 13 12 12 12 13 15 16 17 18 19 19 19 20 20 21 22
24 22 20 19 18 18 17 16 16 15 15 15 15 17 19 19 18 17 16 17 18 20 20 21 20 19 19 18 18 18 18 19 19 19 19 19 17 16 15 14 13 12 12 12 12 13 13 14 15 15 15 14 13 11 11 12 13 14 15 16 17 18 19 19 19 20 20 21 22
23 21 19 18 17 16 16 15 15 15 15 15 17 18 19 18 16 16 16 18 19 20 20 20 19 18 18 18 18 18 19 19 20 20 19 18 17 16 14 13 13 13 12 12 12 13 13 14 14 14 14 13 11 11 11 12 13 14 16 17 18 19 19 19 20 20 20 21 21
21 19 18 17 16 15 15 14 14 15 15 17 18 18 17 16 15 16 17 18 19 19 19 18 18 17 17 18 18 18 19 20 20 20 19 18 17 16 15 14 13 13 13 13 13 13 13 14 14 13 13 12 11 11 11 12 14 15 16 18 18 19 19 20 20 20 20 20 21
19 17 16 15 14 14 14 14 15 15 16 18 18 17 16 15 15 17 18 18 18 18 18 17 17 17 17 18 18 19 20 20 20 20 19 18 16 15 15 14 14 14 14 13 13 13 14 14 14 13 13 12 11 11 12 13 14 16 17 18 19 19 19 20 20 20 20 20 21
17 15 14 14 14 14 14 14 15 16 17 17 16 15 15 15 16 17 18 18 18 17 17 17 16 17 17 18 19 20 20 20 20 19 19 17 16 16 15 15 14 14 14 14 14 14 14 14 14 14 13 12 12 12 13 14 16 17 18 18 19 19 19 20 20 20 20 20 20
15 14 14 14 14 14 14 15 15 16 17 16 15 15 15 16 16 17 17 17 17 16 16 16 17 17 18 19 20 20 20 20 20 19 18 17 17 16 15 15 15 15 15 15 15 15 15 15 14 14 14 14 13 13 14 16 17 18 18 19 19 19 20 20 20 20 20 20 20
15 14 14 14 14 14 14 15 16 16 16 15 15 15 16 16 17 17 17 17 16 16 16 17 17 18 19 20 20 21 20 20 19 19 18 17 16 16 16 16 16 15 16 16 16 16 16 16 15 15 15 15 15 15 15 17 18 19 19 19 19 20 20 20 21 20 20 20 20
Wind_Direction
218 221 224 228 233 236 239 242 244 246 248 249 249 250 250 250 250 252 253 255 257 258 260 263 266 272 281 293 302 307 311 315 320 323 321 317 314 315 318 322 325 327 329 331 333 335 336 338 339 339 338 338 338 338 338 338 337 336 335 335 336 337 339 339 338 337 334 330 327
221 224 227 231 235 238 241 243 244 246 246 247 247 247 247 248 248 250 251 252 253 255 257 261 267 277 289 298 302 305 308 314 318 319 317 314 314 318 323 326 328 330 331 332 334 336 338 339 340 339 339 339 338 337 336 336 335 334 332 332 333 334 335 335 333 331 329 326 324
225 227 230 233 236 239 242 244 245 245 244 243 242 241 242 243 245 247 248 249 250 252 256 264 276 287 295 298 298 300 306 312 315 314 313 314 318 322 326 328 329 330 331 333 335 337 339 340 340 340 339 339 338 337 336 334 333 331 329 329 329 330 330 328 327 326 326 324 323
228 231 234 236 239 242 244 246 246 245 243 241 239 237 238 239 241 243 244 245 247 251 260 273 286 292 293 291 291 296 302 307 310 312 314 317 321 324 326 328 329 329 331 333 335 337 339 339 339 339 338 337 337 336 334 333 331 329 327 325 325 324 323 322 322 322 323 324 324
232 235 237 240 242 244 246 246 246 244 242 240 238 237 237 238 239 240 241 242 246 255 268 281 287 287 284 282 286 293 300 304 308 312 316 319 321 323 325 326 328 329 331 333 335 337 337 337 337 336 336 335 335 334 333 331 329 326 324 322 320 319 318 317 318 319 322 324 324
236 238 240 241 243 244 245 245 243 242 241 240 238 237 237 237 238 237 238 241 249 262 273 279 280 278 276 277 285 294 301 306 310 314 317 319 321 322 323 326 328 330 332 333 334 335 335 335 334 334 333 333 333 332 331 329 327 324 321 318 316 315 315 314 314 317 320 322 324
240 241 241 242 243 243 243 242 241 239 239 238 237 236 236 236 235 235 237 244 254 264 270 272 272 273 275 281 289 297 304 309 312 314 317 318 319 320 322 325 328 330 332 332 333 333 333 332 331 331 330 330 330 329 328 326 324 321 317 315 313 312 312 312 313 314 317 320 322
242 242 242 242 243 243 242 240 238 236 235 235 234 234 233 233 232 234 240 248 256 262 266 269 272 276 281 285 290 297 304 310 313 315 317 318 318 319 322 325 327 329 330 331 330 330 329 329 328 327 327 327 327 326 325 323 321 318 315 312 311 310 310 311 311 312 314 318 320
239 239 239 239 239 239 238 236 234 233 232 231 230 229 229 230 232 237 245 252 257 263 271 278 281 283 284 284 289 297 306 313 316 317 317 317 317 319 321 324 326 327 328 328 328 327 326 325 324 324 324 324 324 323 321 320 317 315 313 311 310 309 309 309 308 309 310 314 318
236 235 234 233 232 231 229 228 229 229 228 227 226 226 227 230 236 244 251 256 263 273 283 288 287 282 278 280 289 302 311 317 319 318 316 315 316 318 320 322 323 324 325 325 324 324 322 321 321 320 320 321 320 319 318 316 315 313 310 309 309 308 307 306 305 305 307 311 316
233 232 230 227 224 223 222 222 222 223 223 222 223 225 229 236 244 252 258 264 274 285 291 292 285 276 273 280 294 308 316 319 319 316 314 313 314 316 317 319 320 321 322 322 321 320 319 318 317 317 317 317 316 316 315 314 312 310 309 308 307 306 303 301 300 301 304 311 316
231 229 227 224 222 220 219 219 219 220 220 221 223 228 234 244 253 261 269 278 287 293 293 290 279 272 274 285 301 312 317 318 316 313 311 310 311 312 314 315 317 318 319 319 318 316 315 314 313 313 313 313 313 313 312 311 310 308 307 306 304 301 299 297 297 300 305 313 317
229 227 225 222 221 220 219 219 220 221 222 223 227 232 241 250 259 269 278 288 293 293 289 284 276 273 279 293 306 313 316 315 313 310 307 307 308 309 310 312 313 315 315 315 313 312 311 310 309 309 309 309 309 309 309 308 307 306 305 303 301 299 297 296 298 303 310 316 316
227 225 224 222 221 221 221 221 222 223 225 227 231 237 246 254 262 270 280 288 290 287 284 281 277 278 286 297 307 312 313 312 309 306 305 304 305 306 307 309 310 312 311 310 309 307 306 306 305 305 305 305 305 305 305 306 306 305 305 303 301 299 298 299 303 309 315 317 314
226 225 224 224 223 223 223 224 226 227 229 231 236 241 248 254 260 266 273 280 283 284 284 283 281 282 288 297 305 309 310 309 306 304 302 302 302 304 305 306 308 308 308 306 305 303 302 301 300 300 301 301 302 302 303 304 305 307 307 306 304 302 302 305 310 315 316 315 312
225 224 224 224 224 225 226 228 229 231 233 235 239 244 247 252 257 262 268 274 280 284 286 284 282 282 287 295 302 306 308 307 305 302 300 299 300 302 303 304 304 305 304 303 301 299 297 296 295 296 298 299 300 301 303 305 307 309 310 309 306 305 308 312 315 316 315 314 313
223 223 223 223 224 226 229 232 234 236 238 240 242 245 248 252 258 264 269 272 278 282 283 280 278 278 284 292 300 305 307 305 303 300 298 297 298 299 300 300 301 301 301 299 297 295 293 293 293 295 297 299 301 303 305 307 310 311 311 308 307 308 312 316 317 317 316 316 316
223 222 222 222 223 226 231 236 240 243 245 245 246 248 251 256 262 268 271 272 275 277 278 275 273 275 281 291 299 304 305 304 300 297 295 295 295 296 297 297 298 299 299 298 295 293 292 292 294 296 299 301 303 306 308 311 312 313 311 308 308 311 316 318 320 320 320 319 318
223 222 221 221 223 228 234 240 244 248 249 249 251 254 258 263 268 270 270 269 271 273 273 271 270 273 281 291 299 303 304 301 298 294 293 293 293 294 295 295 296 297 297 297 296 295 294 295 297 300 302 305 307 309 311 313 313 312 309 307 309 314 318 322 324 324 323 321 319
223 222 222 223 226 230 236 242 245 247 249 252 257 262 265 268 270 269 265 263 265 269 270 268 268 274 284 293 300 302 302 299 295 292 290 290 291 292 293 294 295 295 296 296 297 297 297 299 301 304 307 308 310 311 312 313 311 308 306 306 310 316 322 325 326 325 323 321 318
223 223 224 226 229 232 236 241 244 245 248 256 262 265 266 266 265 260 256 255 260 266 268 268 270 277 286 294 299 300 299 296 292 289 288 288 289 290 291 293 294 295 296 297 298 299 300 303 306 308 310 310 311 312 312 311 307 304 304 308 314 320 325 327 327 325 322 320 319
222 223 224 226 228 229 232 236 239 242 247 256 260 261 261 259 254 248 245 249 257 264 268 269 272 279 286 292 296 297 296 293 290 287 286 287 288 290 292 294 295 296 298 299 300 302 304 307 309 310 311 311 312 312 312 309 304 303 306 313 319 324 327 328 327 325 323 322 322
222 222 223 224 224 225 227 229 232 237 244 251 255 255 252 248 243 239 240 247 257 264 268 269 272 279 285 291 293 294 293 291 288 286 286 287 290 292 294 295 297 298 299 301 302 304 306 309 311 311 311 312 313 313 311 306 303 305 312 318 323 327 329 329 328 327 326 326 326
221 222 222 222 222 223 225 226 228 234 242 249 250 248 243 238 234 235 239 249 259 266 268 269 271 278 284 288 291 291 291 289 287 286 287 289 291 293 295 297 297 299 300 301 303 305 308 310 312 312 313 313 313 311 308 304 305 310 316 322 326 329 330 331 331 331 330 329 328
221 221 221 221 222 224 226 228 230 237 244 248 245 240 236 232 231 234 243 254 264 269 269 268 270 276 282 287 289 290 290 289 288 288 289 291 293 295 296 297 298 299 300 302 304 306 308 311 312 313 313 313 312 309 306 305 308 313 318 323 327 330 332 334 334 334 333 332 330
221 221 221 221 223 225 227 230 234 241 244 244 239 234 231 229 231 238 249 260 267 269 268 267 270 276 282 286 289 290 289 289 289 290 291 292 294 295 297 298 299 300 301 303 305 307 310 312 313 313 313 314 311 308 307 308 311 315 319 323 328 331 334 336 337 337 336 334 332
220 220 220 221 223 225 227 231 236 239 240 237 233 229 227 228 233 242 254 264 269 269 267 267 271 277 283 287 289 290 289 289 289 290 292 293 295 296 297 298 300 301 303 304 307 309 312 313 313 314 314 314 312 310 310 311 313 316 320 324 329 332 335 338 339 338 337 336 334
219 219 219 220 222 224 227 231 233 234 234 232 228 226 225 228 234 246 258 268 271 269 267 269 274 279 284 288 289 289 289 289 289 291 292 294 296 297 298 299 301 303 304 306 309 311 312 313 314 314 314 314 313 312 312 313 314 317 321 325 329 332 335 337 339 339 339 337 335
218 218 219 220 222 224 226 228 230 232 231 228 224 222 224 229 239 253 265 273 272 269 267 271 276 281 285 287 288 288 288 289 290 292 294 295 297 298 300 301 303 304 306 308 310 312 312 312 313 314 315 315 314 313 313 313 315 318 322 326 329 331 334 336 337 339 339 338 336
218 218 219 220 221 223 225 227 229 229 227 223 220 221 225 234 248 263 274 278 273 269 269 273 278 282 286 287 288 287 287 288 291 293 295 297 298 300 302 303 304 306 307 309 310 311 311 311 313 314 315 315 314 313 312 313 316 320 324 326 328 330 331 333 335 337 338 338 337
216 217 218 219 220 222 223 225 226 225 222 219 219 223 231 244 261 275 281 280 274 270 271 274 279 283 286 287 287 287 287 289 292 295 297 299 300 302 303 304 305 306 307 308 308 308 309 310 312 314 314 314 313 311 311 313 317 321 325 327 328 328 329 330 332 334 336 337 337
216 217 218 218 219 220 221 222 221 219 218 218 222 229 242 258 274 283 285 280 274 271 272 276 281 285 287 287 287 287 288 290 293 297 299 300 302 303 304 305 305 305 305 305 305 306 308 310 312 313 313 312 311 310 311 313 318 323 325 326 326 326 327 327 329 331 333 335 335
216 216 217 217 217 218 219 218 217 217 218 222 228 239 255 272 283 287 285 279 273 271 273 278 282 285 286 286 286 286 288 292 295 298 300 301 302 303 304 304 304 303 302 302 302 304 307 310 311 312 311 310 309 308 310 314 319 323 325 325 325 324 324 324 325 328 330 332 334
214 214 214 215 216 216 216 216 217 219 222 228 238 253 269 281 287 288 283 276 272 272 275 279 282 284 284 284 285 287 291 294 297 299 300 301 301 301 301 301 301 299 298 298 300 303 306 309 310 310 309 308 306 307 310 315 320 323 324 324 322 321 321 321 322 324 327 329 331
212 212 212 213 214 215 215 217 220 223 229 238 252 267 280 287 289 286 279 274 272 274 277 280 282 283 283 285 287 290 294 297 299 299 300 300 299 299 299 299 298 297 296 296 299 302 306 309 310 309 307 305 304 306 311 316 320 322 322 321 320 319 318 318 319 321 323 326 328
210 211 212 213 214 215 217 220 224 230 239 252 267 279 287 290 289 283 276 273 274 276 279 280 282 283 284 286 289 293 296 298 299 299 299 299 298 298 297 297 296 296 295 296 299 303 306 308 308 307 305 304 304 307 312 316 319 320 320 319 317 316 316 316 317 318 320 323 325
210 211 213 215 216 219 222 226 231 240 253 267 279 287 290 290 285 279 275 275 275 277 279 280 282 284 286 289 292 295 297 298 299 299 298 298 297 297 296 295 294 295 295 297 300 303 306 308 308 306 304 303 304 308 312 315 317 317 317 316 315 314 313 313 314 315 317 319 322
210 212 215 218 221 224 228 233 242 255 268 279 286 290 290 286 280 276 275 275 276 277 279 281 283 285 288 291 294 296 297 298 298 298 297 296 295 295 294 293 293 293 295 297 300 303 306 307 306 305 304 304 305 308 312 313 314 315 314 314 313 312 311 311 311 312 314 316 318
211 214 217 221 225 229 235 244 256 269 279 286 289 289 286 281 277 275 275 275 276 278 280 282 285 287 290 293 294 296 297 297 297 297 296 295 294 293 292 291 291 292 294 297 299 302 304 304 304 304 303 303 305 308 310 311 312 312 312 312 311 310 309 309 309 309 310 312 314
214 217 220 225 229 235 244 255 268 277 283 286 285 283 279 276 275 275 275 276 277 280 282 285 287 289 291 293 294 295 296 296 296 296 295 294 292 291 290 289 290 291 292 295 298 300 301 301 301 301 301 301 303 305 307 308 308 308 309 310 310 309 308 307 306 306 307 308 310
216 220 224 229 235 243 253 263 271 277 280 281 279 277 276 276 275 276 276 278 280 282 285 287 289 291 292 293 293 294 295 295 295 294 293 292 289 287 286 286 287 288 290 292 295 297 298 298 297 296 296 297 299 301 303 304 305 305 306 307 307 307 305 305 304 304 304 305 306